Regional Weather Roundup
Issued by NWS

Home | Current Version | Previous Version | Text Only | Print | Product List | Glossary Off
Versions: 1 2 3 4 5 6 7 8 9 10 11 12 13 14 15 16 17 18 19 20 21 22 23 24 25 26 27 28 29 30 31 32 33 34 35 36 37 38 39 40 41 42 43 44 45 46 47 48 49 50

000
ASUS43 KOAX 171410
RWRNE

WEATHER ROUNDUP FOR NEBRASKA
NATIONAL WEATHER SERVICE OMAHA NE
800 AM CST TUE JAN 17 2017

NOTES: SATELLITE DATA IS BEING USED TO AUGMENT CLOUD COVER ABOVE
       12000 FEET.
       "FAIR" INDICATES FEW OR NO CLOUDS BELOW 12,000 FEET WITH NO
       SIGNIFICANT WEATHER AND/OR OBSTRUCTIONS TO VISIBILITY.

  * THESE STATIONS DO NOT REPORT WEATHER SUCH AS RAIN...SNOW OR FOG.

NEZ001>004-019>022-054>056-171500-
NEBRASKA PANHANDLE

CITY           SKY/WX    TMP DP  RH WIND       PRES   REMARKS
SCOTTSBLUFF    CLOUDY    14   8  77 N5        30.04R WCI   6
ALLIANCE       CLOUDY     7   4  87 S3        30.01F
CHADRON        CLOUDY     7   2  80 CALM      30.02R
KIMBALL        CLEAR     12   8  84 W6        30.03S WCI   2
SIDNEY         CLOUDY    15   8  73 NW14      30.05R WCI   0
$$

NEZ057>060-069>072-079>082-171500-
SOUTHWEST NEBRASKA

CITY           SKY/WX    TMP DP  RH WIND       PRES   REMARKS
NORTH PLATTE   CLOUDY    19  16  88 NW5       30.07R WCI  12
IMPERIAL       CLOUDY    20  14  77 W5        30.08S WCI  13
LEXINGTON      CLOUDY    24  20  85 NW8       30.06S WCI  14
MCCOOK         CLOUDY    24  20  84 W13       30.09S WCI  12
OGALLALA       CLOUDY    18  14  83 W6        30.08R WCI  10
$$

NEZ005>010-023>029-035>040-094-171500-
NORTH CENTRAL NEBRASKA

CITY           SKY/WX    TMP DP  RH WIND       PRES   REMARKS
VALENTINE      CLEAR     12   7  80 W3        30.03S
AINSWORTH      CLOUDY    17  15  91 W7        30.03S WCI   8
BROKEN BOW     CLOUDY    25  18  74 N13       30.04R WCI  14
O`NEILL        CLOUDY    19  16  88 NW7       30.04S WCI  10
ORD            CLOUDY    17  13  84 N6        30.04S WCI   9
THEDFORD       CLOUDY    20  16  84 W7        30.04S WCI  11
$$

NEZ041-046>049-061>064-073>077-083>087-171500-
SOUTH CENTRAL NEBRASKA

CITY           SKY/WX    TMP DP  RH WIND       PRES   REMARKS
GRAND ISLAND   CLOUDY    20  19  96 W6        30.07S WCI  12
AURORA         CLEAR     22  20  92 CALM      30.06F
HASTINGS       CLEAR     24  20  84 NW6       30.07S WCI  17
HEBRON         PTCLDY    26  23  90 CALM      30.10R
HOLDREGE       CLOUDY    26  22  85 CALM      30.06S
KEARNEY *      CLOUDY    21  16  79 CALM      30.06F
YORK           CLEAR     25  21  86 MISG      30.07S
$$

NEZ011>018-030>034-042>045-171500-
NORTHEAST NEBRASKA

CITY           SKY/WX    TMP DP  RH WIND       PRES   REMARKS
NORFOLK        CLOUDY    17  13  84 NW9       30.04R WCI   6
ALBION         CLOUDY    16  13  88 CALM      30.05R FOG
BLAIR          CLOUDY    25  22  90 NW3       30.04R FOG
FREMONT        CLOUDY    24  20  87 W9        30.06S WCI  14
TEKAMAH        CLOUDY    24  20  84 NW10      30.06R WCI  14
WAYNE          CLOUDY    16  13  88 CALM      30.05R
$$

NEZ050>053-065>068-078-088>093-171500-
SOUTHEAST NEBRASKA

CITY           SKY/WX    TMP DP  RH WIND       PRES   REMARKS
LINCOLN        CLEAR     24  19  81 NW9       30.09S WCI  14
OMAHA EPPLEY   FRZ DRZL  27  22  81 W12       30.06R WCI  17
BEATRICE       CLOUDY    27  23  86 NW12      30.08S WCI  17
FALLS CITY     CLOUDY    32  30  92 NW9       30.05R WCI  24
NEBRASKA CITY  CLOUDY    29  29 100 NW13      30.06R FOG     WCI  19
PLATTSMOUTH    CLOUDY    28  24  87 W13       30.06R FOG     WCI  17
$$

NEZ044-045-051>053-067-171500-
OMAHA AREA

CITY           SKY/WX    TMP DP  RH WIND       PRES   REMARKS
OMAHA EPPLEY   FRZ DRZL  27  22  81 W12       30.06R WCI  17
BLAIR          CLOUDY    25  22  90 NW3       30.04R FOG
FREMONT        CLOUDY    24  20  87 W9        30.06S WCI  14
MILLARD        CLOUDY    28  24  86 W5        30.07R WCI  23
OFFUTT AFB     CLOUDY    27  27 100 W7        30.06R WCI  20
PLATTSMOUTH    CLOUDY    28  24  87 W13       30.06R FOG     WCI  17
WAHOO          CLOUDY    24  19  83 NW10      30.07R WCI  13
$$



USA.gov is the U.S. government's official web portal to all federal, state and local government web resources and services.